Regional Weather Roundup
Issued by NWS

Home | Current Version | Previous Version | Graphics & Text | Print | Product List | Glossary On
Versions: 1 2 3 4 5 6 7 8 9 10 11 12 13 14 15 16 17 18 19 20 21 22 23 24 25 26 27
000
ASUS45 KBOU 210207
RWRCO

WEATHER ROUNDUP FOR COLORADO
NATIONAL WEATHER SERVICE DENVER/BOULDER CO
700 PM MST MON FEB 20 2017

NOTE: "FAIR" INDICATES FEW OR NO CLOUDS BELOW 12000 FEET WITH NO
SIGNIFICANT WEATHER AND/OR OBSTRUCTIONS TO VISIBILITY.

COZ001>005-013-030-031-210300-
...NORTHWEST COLORADO...

CITY           SKY/WX    TMP DP  RH WIND       PRES   REMARKS
CRAIG          FAIR      39  31  72 E5        30.13R
HAYDEN         FAIR      37  25  60 E8        30.13F
MEEKER         FAIR      41  31  67 NW5       30.14S
MOUNT WERNER   NOT AVBL
STEAMBOAT SPGS FAIR      35  28  75 NE5       30.16R WCI  31
WALDEN         NOT AVBL
$$

COZ006>008-011-210300-
...WEST CENTRAL VALLEYS...

CITY           SKY/WX    TMP DP  RH WIND       PRES   REMARKS
GRAND JUNCTION FAIR      44  38  79 N5        30.16R
MONTROSE       FAIR      46  31  55 CALM      30.20R
EAGLE          CLEAR     43  30  61 CALM      30.20R
RIFLE          FAIR      45  35  68 S7        30.15S
DELTA          FAIR      48  35  60 N5        30.17S
NUCLA          FAIR      45  30  57 SW6       30.27R
$$

COZ017>023-064>068-210300-
...SOUTHWEST COLORADO...

CITY           SKY/WX    TMP DP  RH WIND       PRES   REMARKS
DURANGO        FAIR      43  30  60 W7        30.27R
CORTEZ         FAIR      39  35  86 CALM      30.26R
PAGOSA SPRINGS MOCLDY    33  26  75 CALM      30.30R
TELLURIDE      FAIR      36  27  70 CALM      30.30R
WOLF CREEK PAS FAIR      21  21 100 S15       30.41R WCI   8
$$

COZ009-010-012-014-032>034-037-058>063-210300-
...CENTRAL COLORADO...

CITY           SKY/WX    TMP DP  RH WIND       PRES   REMARKS
ASPEN          FAIR      37  23  56 S3        30.19R
BUENA VISTA    FAIR      43  11  27 W14G30    30.19R
COPPER MTN     MOCLDY    28   9  43 S12       30.28S WCI  18
BERTHOUD PASS  FAIR      19  10  68 W20G28    30.25F WCI   4
COTTONWOOD PAS FAIR      39   5  24 W17G28    30.23R
GUNNISON       FAIR      31  24  75 CALM      30.27R
KREMMLING      FAIR      41  28  60 CALM      30.19R
LEADVILLE      CLOUDY    28  13  53 E3        30.22S
MONARCH PASS   MOCLDY    25  12  58 W23       30.41S WCI  10
SALIDA         FAIR      45  12  26 SW10      30.24S
SUNLIGHT       NOT AVBL
WILKERSON PASS FAIR      30   5  34 SW10G16   30.25F WCI  21
$$

COZ069>075-210300-
...SAN LUIS VALLEY/SANGRE DE CRISTO MOUNTAINS...

CITY           SKY/WX    TMP DP  RH WIND       PRES   REMARKS
ALAMOSA        FAIR      34  26  72 S8        30.22S WCI  27
LA VETA PASS   FAIR      32  14  47 NE25G31   30.26R WCI  19
SAGUACHE       FAIR      34  19  55 NW3       30.25R
$$

COZ035-036-038>040-210300-
...NORTHERN COLORADO FRONT RANGE...

CITY           SKY/WX    TMP DP  RH WIND       PRES   REMARKS
DENVER INTL AP FAIR      49  15  25 SE8       30.03R
DMNS CITY PARK   N/A     53  15  22 E14       30.01F
AURORA         PTCLDY    44  14  29 SE13      30.05R
FRONT RANGE AP PTCLDY    43  14  31 S8        30.05R
ERIE MUNI ARPT FAIR      48  15  27 CALM      30.00F
BOULDER MUN AP FAIR      50  19  29 E5        30.00S
CENTENNIAL     FAIR      52  10  18 S12       30.05R
BROOMFIELD     PTCLDY    54  14  20 E3        30.03R
FORT COLLINS   FAIR      48  20  32 SW7       29.99S
LONGMONT       FAIR      52  17  24 CALM      30.01R
$$

COZ041-046-047-076>085-087-088-210300-
...PIKES PEAK/PALMER DIVIDE AND SOUTHERN FOOTHILLS...

CITY           SKY/WX    TMP DP  RH WIND       PRES   REMARKS
COLO. SPRINGS  FAIR      46   4  17 E8        30.11R
A. F. ACADEMY  CLOUDY    47   5  17 S3        30.10R
SCHRIEVER AFB  FAIR      44   4  19 S7        30.11R
ELLICOTT       FAIR     N/A N/A N/A S9        30.10R
FALCON         FAIR      43   3  19 S10       30.13R
FORT CARSON    FAIR      48   6  18 S12       30.08R
LIMON          FAIR      29  10  45 CALM      30.07R
MONUMENT HILL  FAIR      37  10  32 S9        30.12R
TRINIDAD       FAIR      54   8  16 W6        30.11R
$$

COZ042>045-048>051-090-091-210300-
...NORTHEAST COLORADO...

CITY           SKY/WX    TMP DP  RH WIND       PRES   REMARKS
GREELEY ARPT   FAIR      51  21  30 SW9       30.00S
AKRON          FAIR      44  14  29 SW8       30.02R
BURLINGTON     FAIR      44  12  27 S8        30.04R
WRAY           NOT AVBL
STERLING       FAIR      46  19  34 SW7       29.98R
HOLYOKE        FAIR      41  10  28 S7        30.00R
FORT MORGAN    FAIR      50  11  21 CALM      30.01S
$$

COZ086-089-092>099-210300-
...SOUTHEAST COLORADO...

CITY           SKY/WX    TMP DP  RH WIND       PRES   REMARKS
PUEBLO         FAIR      51   8  17 SE10      30.06R
LA JUNTA       FAIR      54  10  17 E6        30.05R
LAMAR          FAIR      43  11  27 SE6       30.03R
SPRINGFIELD      N/A     42  10  27 CALM      30.08R
$$




USA.gov is the U.S. government's official web portal to all federal, state and local government web resources and services.